Time,TemperatureF,DewpointF,PressureIn,WindDirection,WindDirectionDegrees,WindSpeedMPH,WindSpeedGustMPH,Humidity,HourlyPrecipIn,Conditions,Clouds,dailyrainin,SoftwareType,DateUTC
2013-02-02 00:03:00,10.0,2.0,30.20,SW,225,0.0,0.0,68,0.00,,,0.00,,2013-02-02 05:03:00,
2013-02-02 00:12:00,10.0,2.0,30.20,SW,225,0.0,0.0,68,0.00,,,0.00,,2013-02-02 05:12:00,
2013-02-02 00:22:00,9.0,1.0,30.19,SW,225,0.0,0.0,68,0.00,,,0.00,,2013-02-02 05:22:00,
2013-02-02 00:33:00,9.0,1.0,30.19,SW,225,0.0,0.0,68,0.00,,,0.00,,2013-02-02 05:33:00,
2013-02-02 00:42:00,9.0,1.0,30.19,SW,225,0.0,0.0,68,0.00,,,0.00,,2013-02-02 05:42:00,
2013-02-02 00:52:00,9.0,1.0,30.19,SW,225,0.0,0.0,68,0.00,,,0.00,,2013-02-02 05:52:00,
2013-02-02 01:02:00,8.0,0.0,30.18,SW,225,0.0,0.0,69,0.00,,,0.00,,2013-02-02 06:02:00,
2013-02-02 01:12:00,8.0,0.0,30.18,SW,225,0.0,0.0,69,0.00,,,0.00,,2013-02-02 06:12:00,
2013-02-02 01:22:00,8.0,0.0,30.18,SW,225,0.0,0.0,69,0.00,,,0.00,,2013-02-02 06:22:00,
2013-02-02 01:32:00,8.0,0.0,30.17,SW,225,0.0,0.0,69,0.00,,,0.00,,2013-02-02 06:32:00,
2013-02-02 01:42:00,8.0,0.0,30.17,SW,225,0.0,0.0,69,0.00,,,0.00,,2013-02-02 06:42:00,
2013-02-02 01:51:00,8.0,0.0,30.17,SW,225,0.0,0.0,69,0.00,,,0.00,,2013-02-02 06:51:00,
2013-02-02 02:02:00,8.0,0.0,30.17,SW,225,0.0,0.0,69,0.00,,,0.00,,2013-02-02 07:02:00,
2013-02-02 02:12:00,8.0,0.0,30.16,SW,225,0.0,0.0,69,0.00,,,0.00,,2013-02-02 07:12:00,
2013-02-02 02:21:00,8.0,0.0,30.16,SW,225,0.0,0.0,69,0.00,,,0.00,,2013-02-02 07:21:00,
2013-02-02 02:32:00,7.0,-1.0,30.16,SW,225,0.0,0.0,70,0.00,,,0.00,,2013-02-02 07:32:00,
2013-02-02 02:42:00,7.0,-1.0,30.16,SW,225,0.0,0.0,70,0.00,,,0.00,,2013-02-02 07:42:00,
2013-02-02 02:51:00,7.0,-1.0,30.16,SW,225,0.0,0.0,70,0.00,,,0.00,,2013-02-02 07:51:00,
2013-02-02 03:01:00,7.0,-1.0,30.16,SW,225,0.0,0.0,70,0.00,,,0.00,,2013-02-02 08:01:00,
2013-02-02 03:11:00,7.0,-1.0,30.16,SW,225,0.0,0.0,70,0.00,,,0.00,,2013-02-02 08:11:00,
2013-02-02 03:21:00,7.0,0.0,30.16,SW,225,0.0,0.0,71,0.00,,,0.00,,2013-02-02 08:21:00,
2013-02-02 03:31:00,7.0,0.0,30.16,SW,223,0.0,1.0,71,0.00,,,0.00,,2013-02-02 08:31:00,
2013-02-02 03:41:00,7.0,0.0,30.16,SW,223,0.0,1.0,71,0.00,,,0.00,,2013-02-02 08:41:00,
2013-02-02 03:53:00,7.0,0.0,30.16,SW,225,0.0,0.0,71,0.00,,,0.00,,2013-02-02 08:53:00,
2013-02-02 04:01:00,7.0,0.0,30.15,SW,225,0.0,0.0,71,0.00,,,0.00,,2013-02-02 09:01:00,
2013-02-02 04:11:00,7.0,0.0,30.15,SW,225,0.0,0.0,71,0.00,,,0.00,,2013-02-02 09:11:00,
2013-02-02 04:22:00,7.0,0.0,30.15,SW,225,0.0,0.0,71,0.00,,,0.00,,2013-02-02 09:22:00,
2013-02-02 04:32:00,7.0,0.0,30.15,SSW,202,0.0,0.0,71,0.00,,,0.00,,2013-02-02 09:32:00,
2013-02-02 04:42:00,7.0,0.0,30.15,SSW,202,0.0,0.0,71,0.00,,,0.00,,2013-02-02 09:42:00,
2013-02-02 04:52:00,7.0,0.0,30.15,SSW,202,0.0,0.0,71,0.00,,,0.00,,2013-02-02 09:52:00,
2013-02-02 05:02:00,7.0,0.0,30.14,SW,225,0.0,0.0,72,0.00,,,0.00,,2013-02-02 10:02:00,
2013-02-02 05:11:00,7.0,0.0,30.14,SW,225,0.0,0.0,72,0.00,,,0.00,,2013-02-02 10:11:00,
2013-02-02 05:21:00,7.0,0.0,30.14,SW,225,0.0,0.0,72,0.00,,,0.00,,2013-02-02 10:21:00,
2013-02-02 05:32:00,7.0,0.0,30.13,SW,225,0.0,0.0,72,0.00,,,0.00,,2013-02-02 10:32:00,
2013-02-02 05:42:00,7.0,0.0,30.13,SW,225,0.0,0.0,72,0.00,,,0.00,,2013-02-02 10:42:00,
2013-02-02 05:52:00,7.0,0.0,30.13,SW,225,0.0,0.0,72,0.00,,,0.00,,2013-02-02 10:52:00,
2013-02-02 06:02:00,7.0,0.0,30.13,SW,225,0.0,0.0,72,0.00,,,0.00,,2013-02-02 11:02:00,
2013-02-02 06:11:00,7.0,0.0,30.13,SW,225,0.0,0.0,72,0.00,,,0.00,,2013-02-02 11:11:00,
2013-02-02 06:21:00,7.0,0.0,30.13,SW,225,0.0,0.0,72,0.00,,,0.00,,2013-02-02 11:21:00,
2013-02-02 06:32:00,7.0,0.0,30.13,SW,225,0.0,0.0,72,0.00,,,0.00,,2013-02-02 11:32:00,
2013-02-02 06:42:00,7.0,0.0,30.13,SW,225,0.0,0.0,72,0.00,,,0.00,,2013-02-02 11:42:00,
2013-02-02 06:52:00,7.0,0.0,30.13,SW,225,0.0,0.0,72,0.00,,,0.00,,2013-02-02 11:52:00,
2013-02-02 07:02:00,7.0,0.0,30.12,SW,225,0.0,0.0,72,0.00,,,0.00,,2013-02-02 12:02:00,
2013-02-02 07:11:00,7.0,0.0,30.12,SW,225,0.0,0.0,72,0.00,,,0.00,,2013-02-02 12:11:00,
2013-02-02 07:22:00,7.0,0.0,30.12,North,0,0.0,0.0,72,0.00,,,0.00,,2013-02-02 12:22:00,
2013-02-02 07:32:00,7.0,0.0,30.12,West,270,0.0,0.0,72,0.00,,,0.00,,2013-02-02 12:32:00,
2013-02-02 07:42:00,7.0,0.0,30.12,West,270,0.0,0.0,72,0.00,,,0.00,,2013-02-02 12:42:00,
2013-02-02 07:52:00,7.0,0.0,30.12,WNW,292,0.0,0.0,73,0.00,,,0.00,,2013-02-02 12:52:00,
2013-02-02 08:03:00,8.0,1.0,30.12,SSW,202,0.0,3.0,73,0.00,,,0.00,,2013-02-02 13:03:00,
2013-02-02 08:11:00,8.0,1.0,30.12,SSW,202,0.0,3.0,73,0.00,,,0.00,,2013-02-02 13:11:00,
2013-02-02 08:21:00,8.0,1.0,30.11,SSW,202,0.0,0.0,73,0.00,,,0.00,,2013-02-02 13:21:00,
2013-02-02 08:32:00,10.0,3.0,30.11,SSW,202,0.0,3.0,73,0.00,,,0.00,,2013-02-02 13:32:00,
2013-02-02 08:42:00,10.0,3.0,30.11,SSW,202,0.0,3.0,73,0.00,,,0.00,,2013-02-02 13:42:00,
2013-02-02 08:52:00,11.0,4.0,30.12,SSW,202,1.0,3.0,73,0.00,,,0.00,,2013-02-02 13:52:00,
2013-02-02 09:03:00,12.0,5.0,30.11,SW,214,2.0,7.0,72,0.00,,,0.00,,2013-02-02 14:03:00,
2013-02-02 09:11:00,12.0,5.0,30.11,SW,214,2.0,7.0,72,0.00,,,0.00,,2013-02-02 14:11:00,
2013-02-02 09:22:00,13.0,6.0,30.11,SW,225,2.0,6.0,72,0.00,,,0.00,,2013-02-02 14:22:00,
2013-02-02 09:32:00,14.0,6.0,30.11,SSW,204,1.0,7.0,71,0.00,,,0.00,,2013-02-02 14:32:00,
2013-02-02 09:42:00,14.0,6.0,30.11,SSW,204,1.0,7.0,71,0.00,,,0.00,,2013-02-02 14:42:00,
2013-02-02 09:52:00,15.0,7.0,30.10,SW,219,6.0,10.0,70,0.00,,,0.00,,2013-02-02 14:52:00,
2013-02-02 10:03:00,16.0,8.0,30.10,SW,225,2.0,12.0,69,0.00,,,0.00,,2013-02-02 15:03:00,
2013-02-02 10:12:00,16.0,8.0,30.10,SW,225,2.0,12.0,69,0.00,,,0.00,,2013-02-02 15:12:00,
2013-02-02 10:22:00,17.0,8.0,30.10,WSW,246,2.0,13.0,68,0.00,,,0.00,,2013-02-02 15:22:00,
2013-02-02 10:32:00,17.0,8.0,30.09,WSW,251,0.0,9.0,68,0.00,,,0.00,,2013-02-02 15:32:00,
2013-02-02 10:42:00,17.0,8.0,30.09,WSW,251,0.0,9.0,68,0.00,,,0.00,,2013-02-02 15:42:00,
2013-02-02 10:52:00,18.0,9.0,30.07,SW,228,3.0,8.0,66,0.00,,,0.00,,2013-02-02 15:52:00,
2013-02-02 11:03:00,19.0,9.0,30.06,SSW,209,5.0,9.0,64,0.00,,,0.00,,2013-02-02 16:03:00,
2013-02-02 11:12:00,19.0,9.0,30.06,SSW,209,5.0,9.0,64,0.00,,,0.00,,2013-02-02 16:12:00,
2013-02-02 11:23:00,19.0,9.0,30.06,SW,222,2.0,8.0,63,0.00,,,0.00,,2013-02-02 16:23:00,
2013-02-02 11:32:00,20.0,9.0,30.05,SW,215,2.0,12.0,62,0.00,,,0.00,,2013-02-02 16:32:00,
2013-02-02 11:42:00,20.0,9.0,30.05,SW,215,2.0,12.0,62,0.00,,,0.00,,2013-02-02 16:42:00,
2013-02-02 11:52:00,20.0,9.0,30.04,SW,221,4.0,12.0,62,0.00,,,0.00,,2013-02-02 16:52:00,
2013-02-02 12:03:00,21.0,10.0,30.02,SSW,208,9.0,12.0,62,0.00,,,0.00,,2013-02-02 17:03:00,
2013-02-02 12:11:00,21.0,10.0,30.02,SSW,208,9.0,12.0,62,0.00,,,0.00,,2013-02-02 17:11:00,
2013-02-02 12:22:00,21.0,10.0,30.01,SW,227,4.0,14.0,62,0.00,,,0.00,,2013-02-02 17:22:00,
2013-02-02 12:32:00,22.0,11.0,30.01,West,279,4.0,12.0,62,0.00,,,0.00,,2013-02-02 17:32:00,
2013-02-02 12:42:00,22.0,11.0,30.01,West,279,4.0,12.0,62,0.00,,,0.00,,2013-02-02 17:42:00,
2013-02-02 12:52:00,22.0,10.0,30.00,SW,225,7.0,15.0,60,0.00,,,0.00,,2013-02-02 17:52:00,
2013-02-02 13:02:00,22.0,10.0,30.00,WSW,243,5.0,14.0,59,0.00,,,0.00,,2013-02-02 18:02:00,
2013-02-02 13:12:00,22.0,10.0,30.00,WSW,243,5.0,14.0,59,0.00,,,0.00,,2013-02-02 18:12:00,
2013-02-02 13:22:00,22.0,10.0,29.98,SW,225,9.0,22.0,58,0.00,,,0.00,,2013-02-02 18:22:00,
2013-02-02 13:32:00,23.0,10.0,29.97,SW,223,5.0,12.0,58,0.00,,,0.00,,2013-02-02 18:32:00,
2013-02-02 13:42:00,23.0,10.0,29.97,SW,223,5.0,12.0,58,0.00,,,0.00,,2013-02-02 18:42:00,
2013-02-02 13:52:00,24.0,12.0,29.96,SW,225,3.0,10.0,59,0.00,,,0.00,,2013-02-02 18:52:00,
2013-02-02 14:02:00,24.0,13.0,29.95,SSW,200,7.0,14.0,61,0.00,,,0.00,,2013-02-02 19:02:00,
2013-02-02 14:12:00,24.0,13.0,29.95,SSW,200,7.0,14.0,61,0.00,,,0.00,,2013-02-02 19:12:00,
2013-02-02 14:21:00,24.0,14.0,29.93,SSW,203,4.0,9.0,64,0.00,,,0.00,,2013-02-02 19:21:00,
2013-02-02 14:32:00,24.0,14.0,29.92,South,180,1.0,3.0,65,0.00,,,0.00,,2013-02-02 19:32:00,
2013-02-02 14:42:00,24.0,14.0,29.92,South,180,1.0,3.0,65,0.00,,,0.00,,2013-02-02 19:42:00,
2013-02-02 14:51:00,25.0,15.0,29.91,SW,230,1.0,3.0,66,0.00,,,0.00,,2013-02-02 19:51:00,
2013-02-02 15:01:00,25.0,16.0,29.90,East,94,1.0,5.0,67,0.00,,,0.00,,2013-02-02 20:01:00,
2013-02-02 15:11:00,25.0,16.0,29.90,East,94,1.0,5.0,67,0.00,,,0.00,,2013-02-02 20:11:00,
2013-02-02 15:21:00,26.0,17.0,29.90,SW,223,1.0,10.0,67,0.00,,,0.00,,2013-02-02 20:21:00,
2013-02-02 15:32:00,26.0,17.0,29.89,SSW,212,5.0,8.0,68,0.00,,,0.00,,2013-02-02 20:32:00,
2013-02-02 15:42:00,26.0,17.0,29.89,SSW,212,5.0,8.0,68,0.00,,,0.00,,2013-02-02 20:42:00,
2013-02-02 15:52:00,26.0,17.0,29.89,SSE,165,3.0,14.0,68,0.00,,,0.00,,2013-02-02 20:52:00,
2013-02-02 16:02:00,26.0,17.0,29.89,SW,215,3.0,8.0,69,0.00,,,0.00,,2013-02-02 21:02:00,
2013-02-02 16:11:00,26.0,17.0,29.89,SW,215,3.0,8.0,69,0.00,,,0.00,,2013-02-02 21:11:00,
2013-02-02 16:21:00,26.0,17.0,29.89,SSW,207,3.0,8.0,69,0.00,,,0.00,,2013-02-02 21:21:00,
2013-02-02 16:32:00,26.0,18.0,29.89,SSW,212,5.0,7.0,70,0.00,,,0.00,,2013-02-02 21:32:00,
2013-02-02 16:42:00,26.0,18.0,29.89,SSW,212,5.0,7.0,70,0.00,,,0.00,,2013-02-02 21:42:00,
2013-02-02 16:52:00,26.0,18.0,29.89,SSW,209,5.0,15.0,70,0.00,,,0.00,,2013-02-02 21:52:00,
2013-02-02 17:02:00,25.0,17.0,29.89,SSW,199,9.0,16.0,71,0.00,,,0.00,,2013-02-02 22:02:00,
2013-02-02 17:12:00,25.0,17.0,29.89,SSW,199,9.0,16.0,71,0.00,,,0.00,,2013-02-02 22:12:00,
2013-02-02 17:21:00,25.0,17.0,29.89,South,188,3.0,12.0,72,0.00,,,0.00,,2013-02-02 22:21:00,
2013-02-02 17:32:00,25.0,17.0,29.89,SW,225,7.0,12.0,72,0.00,,,0.00,,2013-02-02 22:32:00,
2013-02-02 17:42:00,25.0,17.0,29.89,SW,225,7.0,12.0,72,0.00,,,0.00,,2013-02-02 22:42:00,
2013-02-02 17:52:00,25.0,18.0,29.89,SSW,213,7.0,12.0,73,0.00,,,0.00,,2013-02-02 22:52:00,
2013-02-02 18:02:00,25.0,18.0,29.89,SSW,202,3.0,9.0,73,0.00,,,0.00,,2013-02-02 23:02:00,
2013-02-02 18:11:00,25.0,18.0,29.89,SSW,202,3.0,9.0,73,0.00,,,0.00,,2013-02-02 23:11:00,
2013-02-02 18:21:00,25.0,18.0,29.89,SW,233,6.0,10.0,74,0.00,,,0.00,,2013-02-02 23:21:00,
2013-02-02 18:32:00,25.0,18.0,29.89,SW,216,6.0,10.0,75,0.00,,,0.00,,2013-02-02 23:32:00,
2013-02-02 18:42:00,25.0,18.0,29.89,SW,216,6.0,10.0,75,0.00,,,0.00,,2013-02-02 23:42:00,
2013-02-02 18:52:00,25.0,18.0,29.89,SW,225,4.0,6.0,75,0.00,,,0.00,,2013-02-02 23:52:00,
2013-02-02 19:02:00,25.0,18.0,29.90,SW,225,6.0,12.0,75,0.00,,,0.00,,2013-02-03 00:02:00,
2013-02-02 19:11:00,25.0,18.0,29.90,SW,225,6.0,12.0,75,0.00,,,0.00,,2013-02-03 00:11:00,
2013-02-02 19:22:00,25.0,19.0,29.89,SSW,196,5.0,8.0,76,0.00,,,0.00,,2013-02-03 00:22:00,
2013-02-02 19:32:00,25.0,19.0,29.89,SW,227,5.0,10.0,76,0.00,,,0.00,,2013-02-03 00:32:00,
2013-02-02 19:42:00,25.0,19.0,29.89,SW,227,5.0,10.0,76,0.00,,,0.00,,2013-02-03 00:42:00,
2013-02-02 19:51:00,25.0,19.0,29.90,WSW,241,4.0,7.0,77,0.00,,,0.00,,2013-02-03 00:51:00,
2013-02-02 20:02:00,25.0,19.0,29.90,SSW,203,5.0,10.0,77,0.00,,,0.00,,2013-02-03 01:02:00,
2013-02-02 20:11:00,25.0,19.0,29.90,WSW,250,5.0,7.0,77,0.00,,,0.00,,2013-02-03 01:11:00,
2013-02-02 20:21:00,25.0,19.0,29.90,WSW,250,5.0,7.0,77,0.00,,,0.00,,2013-02-03 01:21:00,
2013-02-02 20:32:00,24.0,18.0,29.90,WSW,244,4.0,7.0,78,0.00,,,0.00,,2013-02-03 01:32:00,
2013-02-02 20:42:00,24.0,18.0,29.90,WSW,244,4.0,7.0,78,0.00,,,0.00,,2013-02-03 01:42:00,
2013-02-02 20:52:00,24.0,18.0,29.90,SW,232,2.0,3.0,78,0.00,,,0.00,,2013-02-03 01:52:00,
2013-02-02 21:01:00,24.0,18.0,29.90,SW,232,2.0,3.0,78,0.00,,,0.00,,2013-02-03 02:01:00,
2013-02-02 21:11:00,24.0,18.0,29.90,SW,232,2.0,3.0,78,0.00,,,0.00,,2013-02-03 02:11:00,
2013-02-02 21:21:00,24.0,18.0,29.89,WSW,248,2.0,6.0,78,0.00,,,0.00,,2013-02-03 02:21:00,
2013-02-02 21:32:00,24.0,18.0,29.89,SW,236,5.0,7.0,78,0.00,,,0.00,,2013-02-03 02:32:00,
2013-02-02 21:42:00,24.0,18.0,29.89,SW,236,5.0,7.0,78,0.00,,,0.00,,2013-02-03 02:42:00,
2013-02-02 21:52:00,24.0,18.0,29.89,WSW,247,5.0,10.0,78,0.00,,,0.00,,2013-02-03 02:52:00,
2013-02-02 22:02:00,24.0,18.0,29.89,WSW,248,1.0,7.0,78,0.00,,,0.00,,2013-02-03 03:02:00,
2013-02-02 22:11:00,24.0,18.0,29.89,WSW,248,1.0,7.0,78,0.00,,,0.00,,2013-02-03 03:11:00,
2013-02-02 22:21:00,24.0,18.0,29.89,North,7,1.0,6.0,78,0.00,,,0.00,,2013-02-03 03:21:00,
2013-02-02 22:32:00,24.0,18.0,29.89,WSW,249,1.0,5.0,78,0.00,,,0.00,,2013-02-03 03:32:00,
2013-02-02 22:42:00,24.0,18.0,29.89,WSW,249,1.0,5.0,78,0.00,,,0.00,,2013-02-03 03:42:00,
2013-02-02 22:51:00,24.0,18.0,29.88,SW,225,5.0,7.0,78,0.00,,,0.00,,2013-02-03 03:51:00,
2013-02-02 23:01:00,24.0,18.0,29.88,SW,225,2.0,7.0,78,0.00,,,0.00,,2013-02-03 04:01:00,
2013-02-02 23:11:00,24.0,18.0,29.88,SW,225,2.0,7.0,78,0.00,,,0.00,,2013-02-03 04:11:00,
2013-02-02 23:21:00,24.0,18.0,29.87,SW,225,2.0,6.0,78,0.00,,,0.00,,2013-02-03 04:21:00,
2013-02-02 23:32:00,24.0,18.0,29.88,West,263,2.0,9.0,78,0.00,,,0.00,,2013-02-03 04:32:00,
2013-02-02 23:42:00,24.0,18.0,29.88,West,263,2.0,9.0,78,0.00,,,0.00,,2013-02-03 04:42:00,
2013-02-02 23:52:00,24.0,18.0,29.87,WNW,289,2.0,7.0,78,0.00,,,0.00,,2013-02-03 04:52:00,